KATL

Atlanta/Hartsfield-Jackson International

Airport
ICAO code
KATL
IATA Code
ATL
Summary
ICAO Region
NAM
ICAO Territory
Location

Atlanta, Georgia

Serving
Atlanta
Elevation
1026 ft
Coordinates
33° 38' 25" N , 84° 25' 38" W
KCC
Airport LOS
Parallel Runway Operation
Metar
KATL 122352Z 16005KT 10SM SCT070 BKN085 32/17 A3010 RMK AO2 SLP179 MDT CU OHD N W-NW T03220172 10344 20317 53008 $

Description

Primary international airport serving Atlanta, Georgia, USA. The airport is located 10 nm south of the city centre.

SKYbrary Partners:

Safety knowledge contributed by: